����������;��������(kVARh)
2018-12-17 00:00;1,5
2018-12-17 00:15;1,5
2018-12-17 00:30;0,1
2018-12-17 00:45;0,6
2018-12-17 01:00;0,5
2018-12-17 01:15;0
2018-12-17 01:30;0,1
2018-12-17 01:45;0,2
2018-12-17 02:00;0,8
2018-12-17 02:15;0,25
2018-12-17 02:30;0,9
2018-12-17 02:45;0,35
2018-12-17 03:00;1,4
2018-12-17 03:15;9,1
2018-12-17 03:30;11,25
2018-12-17 03:45;9,85
2018-12-17 04:00;10,15
2018-12-17 04:15;9,85
2018-12-17 04:30;8,55
2018-12-17 04:45;8,35
2018-12-17 05:00;8
2018-12-17 05:15;7,2
2018-12-17 05:30;16,7
2018-12-17 05:45;21,95
2018-12-17 06:00;22,45
2018-12-17 06:15;21,05
2018-12-17 06:30;17
2018-12-17 06:45;12,35
2018-12-17 07:00;9,25
2018-12-17 07:15;14,1
2018-12-17 07:30;15,45
2018-12-17 07:45;41,2
2018-12-17 08:00;63
2018-12-17 08:15;52,9
2018-12-17 08:30;31,15
2018-12-17 08:45;43,65
2018-12-17 09:00;43,4
2018-12-17 09:15;48,95
2018-12-17 09:30;44,6
2018-12-17 09:45;54,85
2018-12-17 10:00;54,75
2018-12-17 10:15;60,3
2018-12-17 10:30;61,6
2018-12-17 10:45;59,8
2018-12-17 11:00;57,4
2018-12-17 11:15;65,2
2018-12-17 11:30;63,65
2018-12-17 11:45;58,4
2018-12-17 12:00;66,6
2018-12-17 12:15;70,7
2018-12-17 12:30;66,6
2018-12-17 12:45;70,05
2018-12-17 13:00;70,7
2018-12-17 13:15;70,45
2018-12-17 13:30;71,85
2018-12-17 13:45;64,1
2018-12-17 14:00;60,7
2018-12-17 14:15;62,05
2018-12-17 14:30;64,75
2018-12-17 14:45;61,45
2018-12-17 15:00;57,25
2018-12-17 15:15;60,4
2018-12-17 15:30;55,65
2018-12-17 15:45;49,4
2018-12-17 16:00;47,05
2018-12-17 16:15;45,15
2018-12-17 16:30;40,45
2018-12-17 16:45;40,55
2018-12-17 17:00;37,35
2018-12-17 17:15;31,4
2018-12-17 17:30;24,2
2018-12-17 17:45;26,35
2018-12-17 18:00;24,2
2018-12-17 18:15;23
2018-12-17 18:30;23,25
2018-12-17 18:45;22,4
2018-12-17 19:00;19,1
2018-12-17 19:15;13,25
2018-12-17 19:30;14,8
2018-12-17 19:45;12,3
2018-12-17 20:00;11,65
2018-12-17 20:15;12,7
2018-12-17 20:30;9,45
2018-12-17 20:45;9,65
2018-12-17 21:00;7,95
2018-12-17 21:15;9,3
2018-12-17 21:30;8,35
2018-12-17 21:45;0,75
2018-12-17 22:00;0
2018-12-17 22:15;0
2018-12-17 22:30;0
2018-12-17 22:45;0
2018-12-17 23:00;0
2018-12-17 23:15;0
2018-12-17 23:30;0
2018-12-17 23:45;0
2018-12-18 00:00;0
2018-12-18 00:15;0
2018-12-18 00:30;0
2018-12-18 00:45;0
2018-12-18 01:00;0
2018-12-18 01:15;0
2018-12-18 01:30;0
2018-12-18 01:45;0
2018-12-18 02:00;0
2018-12-18 02:15;0
2018-12-18 02:30;0
2018-12-18 02:45;0
2018-12-18 03:00;0
2018-12-18 03:15;0
2018-12-18 03:30;0
2018-12-18 03:45;0
2018-12-18 04:00;0,1
2018-12-18 04:15;6,7
2018-12-18 04:30;8,05
2018-12-18 04:45;8,8
2018-12-18 05:00;8,25
2018-12-18 05:15;10
2018-12-18 05:30;7,35
2018-12-18 05:45;17,4
2018-12-18 06:00;22,7
2018-12-18 06:15;21,85
2018-12-18 06:30;17,35
2018-12-18 06:45;14,8
2018-12-18 07:00;16,65
2018-12-18 07:15;15,95
2018-12-18 07:30;20,5
2018-12-18 07:45;42,85
2018-12-18 08:00;22,85
2018-12-18 08:15;32,2
2018-12-18 08:30;33,55
2018-12-18 08:45;40,25
2018-12-18 09:00;42,85
2018-12-18 09:15;54,55
2018-12-18 09:30;50,35
2018-12-18 09:45;50,4
2018-12-18 10:00;57,4
2018-12-18 10:15;61,5
2018-12-18 10:30;70,65
2018-12-18 10:45;75,05
2018-12-18 11:00;74,75
2018-12-18 11:15;78,4
2018-12-18 11:30;74,55
2018-12-18 11:45;73,25
2018-12-18 12:00;79,45
2018-12-18 12:15;70,65
2018-12-18 12:30;65,65
2018-12-18 12:45;70,8
2018-12-18 13:00;65,4
2018-12-18 13:15;68
2018-12-18 13:30;69,5
2018-12-18 13:45;63,05
2018-12-18 14:00;69,75
2018-12-18 14:15;64,25
2018-12-18 14:30;64,95
2018-12-18 14:45;63,35
2018-12-18 15:00;60,55
2018-12-18 15:15;65,2
2018-12-18 15:30;57,2
2018-12-18 15:45;53,3
2018-12-18 16:00;47,1
2018-12-18 16:15;43,45
2018-12-18 16:30;44,55
2018-12-18 16:45;45,9
2018-12-18 17:00;46,8
2018-12-18 17:15;46,7
2018-12-18 17:30;37,8
2018-12-18 17:45;36,8
2018-12-18 18:00;35,45
2018-12-18 18:15;35,15
2018-12-18 18:30;32,75
2018-12-18 18:45;36,25
2018-12-18 19:00;32,7
2018-12-18 19:15;29
2018-12-18 19:30;27,2
2018-12-18 19:45;25,5
2018-12-18 20:00;23,7
2018-12-18 20:15;23,7
2018-12-18 20:30;23,65
2018-12-18 20:45;23,65
2018-12-18 21:00;24
2018-12-18 21:15;24,4
2018-12-18 21:30;23,65
2018-12-18 21:45;17,3
2018-12-18 22:00;15,5
2018-12-18 22:15;15,75
2018-12-18 22:30;12,4
2018-12-18 22:45;7,15
2018-12-18 23:00;10,75
2018-12-18 23:15;7,2
2018-12-18 23:30;3,95
2018-12-18 23:45;1,15
2018-12-19 00:00;0
2018-12-19 00:15;0
2018-12-19 00:30;0
2018-12-19 00:45;0
2018-12-19 01:00;0,95
2018-12-19 01:15;3,75
2018-12-19 01:30;3,35
2018-12-19 01:45;3,25
2018-12-19 02:00;3,95
2018-12-19 02:15;5,3
2018-12-19 02:30;4,35
2018-12-19 02:45;2,5
2018-12-19 03:00;0,9
2018-12-19 03:15;0,7
2018-12-19 03:30;0,7
2018-12-19 03:45;1,05
2018-12-19 04:00;1,35
2018-12-19 04:15;0,55
2018-12-19 04:30;0,85
2018-12-19 04:45;2,15
2018-12-19 05:00;1,15
2018-12-19 05:15;1,7
2018-12-19 05:30;1,55
2018-12-19 05:45;0,35
2018-12-19 06:00;0,55
2018-12-19 06:15;6,7
2018-12-19 06:30;17,75
2018-12-19 06:45;16,95
2018-12-19 07:00;15,95
2018-12-19 07:15;16,3
2018-12-19 07:30;14,7
2018-12-19 07:45;51,15
2018-12-19 08:00;25,9
2018-12-19 08:15;29,15
2018-12-19 08:30;23
2018-12-19 08:45;37,4
2018-12-19 09:00;43,1
2018-12-19 09:15;44,2
2018-12-19 09:30;53,1
2018-12-19 09:45;54,35
2018-12-19 10:00;55
2018-12-19 10:15;61
2018-12-19 10:30;67,85
2018-12-19 10:45;65,7
2018-12-19 11:00;71,95
2018-12-19 11:15;73,75
2018-12-19 11:30;69,7
2018-12-19 11:45;72,8
2018-12-19 12:00;75,85
2018-12-19 12:15;80,55
2018-12-19 12:30;79,8
2018-12-19 12:45;107,5
2018-12-19 13:00;70,1
2018-12-19 13:15;69,5
2018-12-19 13:30;61,25
2018-12-19 13:45;74,35
2018-12-19 14:00;56,85
2018-12-19 14:15;54
2018-12-19 14:30;48,05
2018-12-19 14:45;45,55
2018-12-19 15:00;44,8
2018-12-19 15:15;43,3
2018-12-19 15:30;43,15
2018-12-19 15:45;43,7
2018-12-19 16:00;46,7
2018-12-19 16:15;47,5
2018-12-19 16:30;43,85
2018-12-19 16:45;38,5
2018-12-19 17:00;37,45
2018-12-19 17:15;35,1
2018-12-19 17:30;28,2
2018-12-19 17:45;28,05
2018-12-19 18:00;26,7
2018-12-19 18:15;24,25
2018-12-19 18:30;22,05
2018-12-19 18:45;22,95
2018-12-19 19:00;22,55
2018-12-19 19:15;16,95
2018-12-19 19:30;13,6
2018-12-19 19:45;12,9
2018-12-19 20:00;10,05
2018-12-19 20:15;8,4
2018-12-19 20:30;7,15
2018-12-19 20:45;7,75
2018-12-19 21:00;7,05
2018-12-19 21:15;7,4
2018-12-19 21:30;6,55
2018-12-19 21:45;1,8
2018-12-19 22:00;0,7
2018-12-19 22:15;0,8
2018-12-19 22:30;0
2018-12-19 22:45;0
2018-12-19 23:00;1,65
2018-12-19 23:15;0,35
2018-12-19 23:30;1,25
2018-12-19 23:45;1,3
2018-12-20 00:00;0
2018-12-20 00:15;0
2018-12-20 00:30;0
2018-12-20 00:45;0
2018-12-20 01:00;0
2018-12-20 01:15;0,3
2018-12-20 01:30;4,8
2018-12-20 01:45;6,1
2018-12-20 02:00;3,4
2018-12-20 02:15;2,25
2018-12-20 02:30;3,7
2018-12-20 02:45;4,85
2018-12-20 03:00;3,75
2018-12-20 03:15;3,25
2018-12-20 03:30;1,65
2018-12-20 03:45;1,85
2018-12-20 04:00;1,4
2018-12-20 04:15;0,5
2018-12-20 04:30;0,6
2018-12-20 04:45;1,45
2018-12-20 05:00;2,05
2018-12-20 05:15;2
2018-12-20 05:30;0,9
2018-12-20 05:45;0,8
2018-12-20 06:00;0,85
2018-12-20 06:15;0,15
2018-12-20 06:30;0,1
2018-12-20 06:45;0
2018-12-20 07:00;0
2018-12-20 07:15;11,15
2018-12-20 07:30;23,1
2018-12-20 07:45;27,35
2018-12-20 08:00;34,5
2018-12-20 08:15;33,9
2018-12-20 08:30;32,1
2018-12-20 08:45;36,9
2018-12-20 09:00;35,5
2018-12-20 09:15;40,25
2018-12-20 09:30;41,8
2018-12-20 09:45;41,75
2018-12-20 10:00;42,25
2018-12-20 10:15;42,65
2018-12-20 10:30;47,05
2018-12-20 10:45;52,75
2018-12-20 11:00;58,75
2018-12-20 11:15;63,85
2018-12-20 11:30;88,3
2018-12-20 11:45;64,75
2018-12-20 12:00;63,55
2018-12-20 12:15;59,1
2018-12-20 12:30;52,05
2018-12-20 12:45;61,55
2018-12-20 13:00;60,3
2018-12-20 13:15;54,4
2018-12-20 13:30;60,25
2018-12-20 13:45;54,65
2018-12-20 14:00;55,2
2018-12-20 14:15;55,2
2018-12-20 14:30;55,8
2018-12-20 14:45;47,9
2018-12-20 15:00;56
2018-12-20 15:15;54,35
2018-12-20 15:30;50,95
2018-12-20 15:45;48,1
2018-12-20 16:00;46,4
2018-12-20 16:15;44,6
2018-12-20 16:30;43,9
2018-12-20 16:45;41,85
2018-12-20 17:00;35,2
2018-12-20 17:15;33,4
2018-12-20 17:30;26,3
2018-12-20 17:45;28,35
2018-12-20 18:00;26,7
2018-12-20 18:15;22,9
2018-12-20 18:30;22,15
2018-12-20 18:45;18,9
2018-12-20 19:00;15,65
2018-12-20 19:15;14,8
2018-12-20 19:30;14,1
2018-12-20 19:45;13,05
2018-12-20 20:00;11,35
2018-12-20 20:15;7,65
2018-12-20 20:30;4,75
2018-12-20 20:45;3,35
2018-12-20 21:00;3,4
2018-12-20 21:15;5,05
2018-12-20 21:30;6,7
2018-12-20 21:45;1,35
2018-12-20 22:00;0,35
2018-12-20 22:15;0,4
2018-12-20 22:30;0
2018-12-20 22:45;0,4
2018-12-20 23:00;2,05
2018-12-20 23:15;0,75
2018-12-20 23:30;1
2018-12-20 23:45;0
2018-12-21 00:00;0,1
2018-12-21 00:15;0,4
2018-12-21 00:30;0,15
2018-12-21 00:45;1
2018-12-21 01:00;2,95
2018-12-21 01:15;2,45
2018-12-21 01:30;1,95
2018-12-21 01:45;3,05
2018-12-21 02:00;12
2018-12-21 02:15;14,75
2018-12-21 02:30;16,45
2018-12-21 02:45;18,35
2018-12-21 03:00;17
2018-12-21 03:15;17,8
2018-12-21 03:30;17,7
2018-12-21 03:45;32,45
2018-12-21 04:00;32,95
2018-12-21 04:15;32,65
2018-12-21 04:30;27,95
2018-12-21 04:45;26,4
2018-12-21 05:00;23,2
2018-12-21 05:15;22,7
2018-12-21 05:30;21,6
2018-12-21 05:45;21,6
2018-12-21 06:00;21,7
2018-12-21 06:15;19,5
2018-12-21 06:30;18,45
2018-12-21 06:45;17,65
2018-12-21 07:00;16
2018-12-21 07:15;13,1
2018-12-21 07:30;25,6
2018-12-21 07:45;27,35
2018-12-21 08:00;27,45
2018-12-21 08:15;29,05
2018-12-21 08:30;30,85
2018-12-21 08:45;34,9
2018-12-21 09:00;39,65
2018-12-21 09:15;41,2
2018-12-21 09:30;42,7
2018-12-21 09:45;43,95
2018-12-21 10:00;46,1
2018-12-21 10:15;47,45
2018-12-21 10:30;45,85
2018-12-21 10:45;51,85
2018-12-21 11:00;55,4
2018-12-21 11:15;52,7
2018-12-21 11:30;43,75
2018-12-21 11:45;45,4
2018-12-21 12:00;45,9
2018-12-21 12:15;43,7
2018-12-21 12:30;44,25
2018-12-21 12:45;41,1
2018-12-21 13:00;46,1
2018-12-21 13:15;44,15
2018-12-21 13:30;42,7
2018-12-21 13:45;41,95
2018-12-21 14:00;38,65
2018-12-21 14:15;36,65
2018-12-21 14:30;36,85
2018-12-21 14:45;37,4
2018-12-21 15:00;35,95
2018-12-21 15:15;28,1
2018-12-21 15:30;24,3
2018-12-21 15:45;31,25
2018-12-21 16:00;25
2018-12-21 16:15;25,3
2018-12-21 16:30;21
2018-12-21 16:45;25
2018-12-21 17:00;23,4
2018-12-21 17:15;19,65
2018-12-21 17:30;20,55
2018-12-21 17:45;16,7
2018-12-21 18:00;16,6
2018-12-21 18:15;17,1
2018-12-21 18:30;17,5
2018-12-21 18:45;17,5
2018-12-21 19:00;12,3
2018-12-21 19:15;13,25
2018-12-21 19:30;8,6
2018-12-21 19:45;7,8
2018-12-21 20:00;8,05
2018-12-21 20:15;6,1
2018-12-21 20:30;5,9
2018-12-21 20:45;7,5
2018-12-21 21:00;7,35
2018-12-21 21:15;9,5
2018-12-21 21:30;8,8
2018-12-21 21:45;1,65
2018-12-21 22:00;0,15
2018-12-21 22:15;0,6
2018-12-21 22:30;0,35
2018-12-21 22:45;0
2018-12-21 23:00;0
2018-12-21 23:15;0
2018-12-21 23:30;0
2018-12-21 23:45;0
2018-12-22 00:00;0
2018-12-22 00:15;0
2018-12-22 00:30;0
2018-12-22 00:45;0
2018-12-22 01:00;0
2018-12-22 01:15;0
2018-12-22 01:30;0
2018-12-22 01:45;0,05
2018-12-22 02:00;0
2018-12-22 02:15;0
2018-12-22 02:30;0
2018-12-22 02:45;0
2018-12-22 03:00;0,05
2018-12-22 03:15;0,15
2018-12-22 03:30;1,15
2018-12-22 03:45;1,45
2018-12-22 04:00;1,35
2018-12-22 04:15;1,25
2018-12-22 04:30;2,55
2018-12-22 04:45;1,65
2018-12-22 05:00;1,05
2018-12-22 05:15;2,7
2018-12-22 05:30;2,25
2018-12-22 05:45;0,45
2018-12-22 06:00;0,5
2018-12-22 06:15;0,3
2018-12-22 06:30;0
2018-12-22 06:45;0
2018-12-22 07:00;0
2018-12-22 07:15;0
2018-12-22 07:30;0,1
2018-12-22 07:45;0
2018-12-22 08:00;0
2018-12-22 08:15;0
2018-12-22 08:30;0
2018-12-22 08:45;2,3
2018-12-22 09:00;2,35
2018-12-22 09:15;2,85
2018-12-22 09:30;1,2
2018-12-22 09:45;0,1
2018-12-22 10:00;0,55
2018-12-22 10:15;0
2018-12-22 10:30;0
2018-12-22 10:45;0
2018-12-22 11:00;0
2018-12-22 11:15;0,8
2018-12-22 11:30;1,35
2018-12-22 11:45;0,35
2018-12-22 12:00;0,05
2018-12-22 12:15;0
2018-12-22 12:30;0,1
2018-12-22 12:45;0,6
2018-12-22 13:00;0,4
2018-12-22 13:15;0
2018-12-22 13:30;0,5
2018-12-22 13:45;0,1
2018-12-22 14:00;0
2018-12-22 14:15;0,6
2018-12-22 14:30;1,15
2018-12-22 14:45;1,65
2018-12-22 15:00;1,9
2018-12-22 15:15;2,85
2018-12-22 15:30;1,55
2018-12-22 15:45;1,2
2018-12-22 16:00;2,3
2018-12-22 16:15;0,55
2018-12-22 16:30;1,05
2018-12-22 16:45;1,25
2018-12-22 17:00;1,85
2018-12-22 17:15;1,65
2018-12-22 17:30;0,85
2018-12-22 17:45;0
2018-12-22 18:00;0
2018-12-22 18:15;0
2018-12-22 18:30;0,1
2018-12-22 18:45;1,7
2018-12-22 19:00;1,7
2018-12-22 19:15;2
2018-12-22 19:30;2,2
2018-12-22 19:45;1,9
2018-12-22 20:00;4,5
2018-12-22 20:15;2,4
2018-12-22 20:30;3,45
2018-12-22 20:45;2,2
2018-12-22 21:00;2,05
2018-12-22 21:15;2,2
2018-12-22 21:30;2,15
2018-12-22 21:45;3,8
2018-12-22 22:00;3,3
2018-12-22 22:15;1,5
2018-12-22 22:30;0
2018-12-22 22:45;0
2018-12-22 23:00;0,5
2018-12-22 23:15;0,1
2018-12-22 23:30;0,05
2018-12-22 23:45;0,05
2018-12-23 00:00;0
2018-12-23 00:15;0
2018-12-23 00:30;0
2018-12-23 00:45;0
2018-12-23 01:00;0
2018-12-23 01:15;0
2018-12-23 01:30;0
2018-12-23 01:45;0
2018-12-23 02:00;0
2018-12-23 02:15;0,05
2018-12-23 02:30;0
2018-12-23 02:45;0
2018-12-23 03:00;0
2018-12-23 03:15;0
2018-12-23 03:30;0,3
2018-12-23 03:45;0,15
2018-12-23 04:00;0,05
2018-12-23 04:15;0
2018-12-23 04:30;0
2018-12-23 04:45;0,1
2018-12-23 05:00;0,5
2018-12-23 05:15;0
2018-12-23 05:30;0,1
2018-12-23 05:45;0
2018-12-23 06:00;0
2018-12-23 06:15;0
2018-12-23 06:30;0
2018-12-23 06:45;0
2018-12-23 07:00;0
2018-12-23 07:15;0,1
2018-12-23 07:30;0,45
2018-12-23 07:45;0,1
2018-12-23 08:00;0
2018-12-23 08:15;0
2018-12-23 08:30;0
2018-12-23 08:45;0
2018-12-23 09:00;0
2018-12-23 09:15;0
2018-12-23 09:30;0,1
2018-12-23 09:45;0
2018-12-23 10:00;0
2018-12-23 10:15;0
2018-12-23 10:30;0
2018-12-23 10:45;0,05
2018-12-23 11:00;5,45
2018-12-23 11:15;7,5
2018-12-23 11:30;5,35
2018-12-23 11:45;3,3
2018-12-23 12:00;4,1
2018-12-23 12:15;3,75
2018-12-23 12:30;1,95
2018-12-23 12:45;1,65
2018-12-23 13:00;2,15
2018-12-23 13:15;2,5
2018-12-23 13:30;2,9
2018-12-23 13:45;3,8
2018-12-23 14:00;4,1
2018-12-23 14:15;4,3
2018-12-23 14:30;4,5
2018-12-23 14:45;4,9
2018-12-23 15:00;5,4
2018-12-23 15:15;7,2
2018-12-23 15:30;5,95
2018-12-23 15:45;5,4
2018-12-23 16:00;4,3
2018-12-23 16:15;2,15
2018-12-23 16:30;0,75
2018-12-23 16:45;1,35
2018-12-23 17:00;2
2018-12-23 17:15;2,5
2018-12-23 17:30;2,5
2018-12-23 17:45;2,2
2018-12-23 18:00;3,55
2018-12-23 18:15;4,15
2018-12-23 18:30;5,2
2018-12-23 18:45;4,05
2018-12-23 19:00;4,05
2018-12-23 19:15;6
2018-12-23 19:30;4,25
2018-12-23 19:45;4,35
2018-12-23 20:00;4,65
2018-12-23 20:15;3,6
2018-12-23 20:30;4,2
2018-12-23 20:45;4,1
2018-12-23 21:00;7,8
2018-12-23 21:15;7,55
2018-12-23 21:30;6,75
2018-12-23 21:45;4,1
2018-12-23 22:00;3,45
2018-12-23 22:15;1,85
2018-12-23 22:30;1,05
2018-12-23 22:45;0
2018-12-23 23:00;0,45
2018-12-23 23:15;0,05
2018-12-23 23:30;0,1
2018-12-23 23:45;0,85

